Torna al catalogo

COSMOS 2461

GLONASS

AttivoNavigazioneMEO
NORAD 36401·PAYLOAD·🇷🇺 Russia

Lanciato Mar 1, 2010 da Baikonur Cosmodrome

Loading…

Prossimi Passaggi (prossime 24 ore)

TLE

AggiornatoSource: Space-Track

Epoca: Sep 12, 2026, 07:27 UTC

1 36401U 10007B   26255.31077162 -.00000044  00000-0  00000-0 0  9998
2 36401  65.3803 311.5907 0019775 356.6733 318.6199  2.13106797128676

Traccia COSMOS 2461 in tempo reale con AllMySat

Download on the App Store